Location: ???????
(55.4362°N, 38.1183°E)
Time: 12:19:33
(UTC+00:00)

Cosmos 2219 Rocket - Pass Details

Date: 29 October 2021
Orbit: 826 x 848 km, 71.0° (Epoch: 01 December)

Event Time Altitude Azimuth Distance (km) Brightness Sun altitude
Exits shadow 00:20:52 37° 99° (E) 1,297 3.4 -34.4°
Drops below altitude 10° 00:24:30 10° 123° (ESE) 2,468 4.9 -34.0°
Sets 00:27:01 0° 129° (SE) 3,402 5.6 -33.6°
